Back to catalog

KSLV-II R/B

AliveSSO
NORAD 52896·ROCKET BODY·🇰🇷 South Korea

Launched Jun 21, 2022 from Naro Space Center

Loading…

Next Passes (next 24 hours)

TLE

FreshSource: Space-Track

Epoch: Sep 14, 2026, 09:48 UTC

1 52896U 22065C   26257.40835430  .00000258  00000-0  56891-4 0  9992
2 52896  98.2762  57.7344 0015373 273.1075  86.8369 14.65431040226211

Track KSLV-II R/B in real time with AllMySat

Download on the App Store